Overview Statistics Trail Chart Weather Telemetry Raw packets
 

This is the latest recevied weather packets stored in our database for station/object N0QV. If no packets are shown the sender has not sent any weather packets the latest 10 day(s).

<< 15 16 17 18 19 20 21 >>
Time Temp. Humidity Pressure Rain* Wind** Luminosity Snow
1788562245 32.22° C 70% 1012.5 hPa 0 mm - 99 W/m² -
1788561940 32.78° C 71% 1012.5 hPa 0 mm - 193 W/m² -
1788561640 32.78° C 69% 1012.3 hPa 0 mm - 197 W/m² -
1788561339 32.78° C 68% 1012.4 hPa 0 mm - 238 W/m² -
1788561035 32.78° C 70% 1012.3 hPa 0 mm - 239 W/m² -
1788560730 32.78° C 68% 1012.1 hPa 0 mm - 264 W/m² -
1788560426 33.89° C 67% 1012.3 hPa 0 mm - 284 W/m² -
1788560121 33.33° C 67% 1012.2 hPa 0 mm - 299 W/m² -
1788559821 33.33° C 68% 1012.2 hPa 0 mm - 271 W/m² -
1788559520 33.33° C 69% 1012.3 hPa 0 mm - 297 W/m² -
1788559216 32.78° C 68% 1012.4 hPa 0 mm - 290 W/m² -
1788558911 33.33° C 68% 1012.2 hPa 0 mm - 330 W/m² -
1788558606 33.33° C 67% 1012.2 hPa 0 mm - 334 W/m² -
1788558302 33.33° C 67% 1012.4 hPa 0 mm - 359 W/m² -
1788558002 33.33° C 68% 1012.2 hPa 0 mm - 376 W/m² -
1788557700 33.33° C 69% 1012.2 hPa 0 mm - 372 W/m² -
1788557397 33.89° C 67% 1012 hPa 0 mm - 373 W/m² -
1788557097 33.33° C 68% 1012.1 hPa 0 mm - 356 W/m² -
1788556792 33.89° C 68% 1012.2 hPa 0 mm - 420 W/m² -
1788556492 33.89° C 67% 1012.2 hPa 0 mm - 429 W/m² -
1788556188 33.33° C 68% 1012.2 hPa 0 mm - 435 W/m² -
1788555886 33.89° C 66% 1012.1 hPa 0 mm - 439 W/m² -
1788555582 33.89° C 65% 1012.2 hPa 0 mm - 466 W/m² -
1788555278 33.89° C 65% 1012.2 hPa 0 mm - 451 W/m² -
1788554975 33.89° C 66% 1012.1 hPa 0 mm - 476 W/m² -

* Rain latest hour (hover to see other rain measurements)
** Current wind speed in m/s (hover to see current wind gust speed)